This is the latest recevied weather packets stored in our database for station/object KU9TRY. If no packets are shown the sender has not sent any weather packets the latest 10 day(s).
| Time | Temp. | Humidity | Pressure | Rain* | Wind** | Luminosity | Snow |
|---|---|---|---|---|---|---|---|
| 1777500505 | 19.44° C | 72% | 1013.2 hPa | 0 mm | - | 126 W/m² | - |
| 1777499898 | 19.44° C | 72% | 1013.1 hPa | 0 mm | - | 118 W/m² | - |
| 1777499595 | 19.44° C | 73% | 1013 hPa | 0 mm | - | 116 W/m² | - |
| 1777499292 | 19.44° C | 72% | 1013 hPa | 0 mm | - | 118 W/m² | - |
| 1777498685 | 19.44° C | 72% | 1012.9 hPa | 0 mm | - | 126 W/m² | - |
| 1777498382 | 20° C | 72% | 1012.9 hPa | 0 mm | - | 118 W/m² | - |
| 1777498079 | 20° C | 73% | 1012.8 hPa | 0 mm | - | 77 W/m² | - |
| 1777497776 | 20° C | 73% | 1012.4 hPa | 0 mm | - | 99 W/m² | - |
| 1777497473 | 20° C | 73% | 1012.8 hPa | 0 mm | - | 169 W/m² | - |
| 1777496866 | 21.11° C | 71% | 1012.5 hPa | 0 mm | - | 128 W/m² | - |
| 1777496563 | 20.56° C | 70% | 1012.6 hPa | 0 mm | - | 172 W/m² | - |
| 1777494439 | 21.67° C | 71% | 1012.6 hPa | 0 mm | - | 119 W/m² | - |
| 1777494135 | 22.22° C | 70% | 1012.4 hPa | 0 mm | - | 220 W/m² | - |
| 1777493228 | 21.11° C | 70% | 1012.7 hPa | 0 mm | - | 241 W/m² | - |
| 1777491407 | 22.22° C | 70% | 1012.8 hPa | 0 mm | - | 267 W/m² | - |
| 1777490799 | 22.22° C | 71% | 1012.7 hPa | 0 mm | - | 264 W/m² | - |
| 1777490496 | 22.22° C | 73% | 1012.7 hPa | 0 mm | - | 222 W/m² | - |
| 1777489890 | 22.78° C | 71% | 1012.5 hPa | 0 mm | - | 262 W/m² | - |
| 1777488981 | 22.78° C | 75% | 1012.5 hPa | 0 mm | - | 242 W/m² | - |
| 1777487469 | 22.78° C | 75% | 1012.3 hPa | 0 mm | - | 310 W/m² | - |
| 1777485042 | 22.22° C | 85% | 1012.2 hPa | 0 mm | - | 330 W/m² | - |
| 1777483526 | 21.67° C | 87% | 1012.5 hPa | 0 mm | - | 270 W/m² | - |
| 1777482922 | 21.11° C | 87% | 1012.7 hPa | 0 mm | - | 484 W/m² | - |
| 1777482013 | 20° C | 92% | 1012.8 hPa | 0 mm | - | 219 W/m² | - |
| 1777480496 | 20° C | 90% | 1012.4 hPa | 0 mm | - | 162 W/m² | - |
* Rain latest hour (hover to see other rain measurements)
** Current wind speed in m/s (hover to see current wind gust speed)